Regional Weather Roundup
Issued by NWS

Home | Current Version | Previous Version | Graphics & Text | Print | Product List | Glossary On
Versions: 1 2 3 4 5 6 7 8 9 10 11 12 13 14 15 16 17 18 19 20 21 22 23 24 25 26 27 28 29 30 31 32 33 34 35 36 37 38 39 40 41 42 43 44 45 46 47 48 49 50
000
ASUS45 KBOU 251907
RWRCO

WEATHER ROUNDUP FOR COLORADO
NATIONAL WEATHER SERVICE DENVER/BOULDER CO
100 PM MDT MON JUL 25 2016

NOTE: "FAIR" INDICATES FEW OR NO CLOUDS BELOW 12000 FEET WITH NO
SIGNIFICANT WEATHER AND/OR OBSTRUCTIONS TO VISIBILITY.

COZ001>005-013-030-031-252000-
...NORTHWEST COLORADO...

CITY           SKY/WX    TMP DP  RH WIND       PRES   REMARKS
CRAIG          FAIR      90  32  12 MISG      30.26F
HAYDEN         FAIR      84  36  17 W7        30.29F
MEEKER         FAIR      88  43  20 VRB7      30.26F
MOUNT WERNER   NOT AVBL
STEAMBOAT SPGS FAIR      84  38  19 SW8       30.32S
WALDEN         FAIR      79  19  11 W17G26    30.41S
$$

COZ006>008-011-252000-
...WEST CENTRAL VALLEYS...

CITY           SKY/WX    TMP DP  RH WIND       PRES   REMARKS
GRAND JUNCTION FAIR      93  41  16 VRB7      30.15F
MONTROSE       FAIR      90  42  18 MISG      30.24F
EAGLE          MOSUNNY   84  39  20 CALM      30.30F
RIFLE          FAIR      91  38  15 NW8       30.20F
DELTA          FAIR      91  37  14 NE7       30.19F
NUCLA          FAIR     N/A N/A N/A N8        30.29F
$$

COZ017>023-064>068-252000-
...SOUTHWEST COLORADO...

CITY           SKY/WX    TMP DP  RH WIND       PRES   REMARKS
DURANGO        FAIR      83  45  26 NW3       30.31F
CORTEZ         FAIR      86  47  25 W5        30.26F
PAGOSA SPRINGS FAIR      80  38  22 SW9       30.40F
TELLURIDE      PTSUNNY   73  41  31 S7        30.55R
WOLF CREEK PAS HVY RAIN  54  43  66 SE5       30.79R
$$

COZ009-010-012-014-032>034-037-058>063-252000-
...CENTRAL COLORADO...

CITY           SKY/WX    TMP DP  RH WIND       PRES   REMARKS
ASPEN          PTSUNNY   77  45  32 SE9       30.39S
BUENA VISTA    FAIR      83  34  17 NW20G29   30.44R
COPPER MTN     PTSUNNY   64  14  14 W17       30.76F
BERTHOUD PASS  FAIR      59  45  58 NW16G30   30.79S
COTTONWOOD PAS PTSUNNY   77  32  19 E14G24    30.56F
GUNNISON       FAIR      79  39  24 SW6       30.42F
KREMMLING      FAIR      77  43  29 E5        30.38F
LEADVILLE      PTSUNNY   64  28  25 S18G28    30.58R
SALIDA         FAIR      84  29  13 W7        30.44S
SUNLIGHT       FAIR      72  37  28 CALM      30.69S
WILKERSON PASS FAIR      70  28  21 S3        30.71F
$$

COZ069>075-252000-
...SAN LUIS VALLEY/SANGRE DE CRISTO MOUNTAINS...

CITY           SKY/WX    TMP DP  RH WIND       PRES   REMARKS
ALAMOSA        FAIR      81  43  26 NW6       30.37F
LA VETA PASS   FAIR      73  37  27 NE10      30.60F
SAGUACHE       FAIR      81  46  30 S9        30.41F
$$

COZ035-036-038>040-252000-
...NORTHERN COLORADO FRONT RANGE...

CITY           SKY/WX    TMP DP  RH WIND       PRES   REMARKS
DENVER INTL AP FAIR      93  48  21 E7        30.16F
DMNS CITY PARK   N/A     89  48  24 N3        30.15F
AURORA         MOSUNNY   92  43  18 VRB2      30.18F
FRONT RANGE AP MOSUNNY   91  48  22 E6        30.18F
ERIE MUNI ARPT FAIR      84  54  35 E6        30.17F
BOULDER MUN AP FAIR      82  54  36 N7        30.18F
CENTENNIAL     FAIR      90  40  17 NW10      30.19F
BROOMFIELD     MOSUNNY   82  52  34 N3        30.21F
LONGMONT       FAIR      85  57  38 NE6       30.19F
$$

COZ041-046-047-076>085-087-088-252000-
...PIKES PEAK/PALMER DIVIDE AND SOUTHERN FOOTHILLS...

CITY           SKY/WX    TMP DP  RH WIND       PRES   REMARKS
COLO. SPRINGS  FAIR      84  55  36 S9G16     30.27F
A. F. ACADEMY  MOSUNNY   82  54  37 S8        30.27F
SCHRIEVER AFB  NOT AVBL
ELLICOTT       LGT RAIN N/A N/A N/A S14       30.26F
FALCON         FAIR      82  48  30 S12G17    30.33F
FORT CARSON    FAIR      84  53  33 E10       30.23F
LIMON          FAIR      84  55  36 S14       30.22F
MONUMENT HILL  FAIR      82  30  15 SW5       30.32F
TRINIDAD       NOT AVBL
$$

COZ042>045-048>051-090-091-252000-
...NORTHEAST COLORADO...

CITY           SKY/WX    TMP DP  RH WIND       PRES   REMARKS
GREELEY ARPT   FAIR      82  59  44 S8        30.18S
AKRON          FAIR      81  61  50 SE18G25   30.19S
BURLINGTON     FAIR      79  63  57 SE15G26   30.21S
WRAY           FAIR      86  59  39 SE18G25   30.16F
STERLING       FAIR      84  63  48 SE16G22   30.14S
HOLYOKE        FAIR      84  64  51 W15G21    30.17S
FORT MORGAN    FAIR      86  59  40 SE15G21   30.15F
$$

COZ086-089-092>099-252000-
...SOUTHEAST COLORADO...

CITY           SKY/WX    TMP DP  RH WIND       PRES   REMARKS
PUEBLO         FAIR      90  55  30 SE7G18    30.15F
LA JUNTA       FAIR      86  63  45 E12       30.15F
LAMAR          FAIR      87  61  41 E14G21    30.13F
SPRINGFIELD      N/A     86  59  39 SE14      30.19F
$$



USA.gov is the U.S. government's official web portal to all federal, state and local government web resources and services.